Flag for Brazil Weather past 2 weeks in Santa María, Rio Grande do Sul, Brazil

Now
73 °F

Partly sunny.


Feels Like: 76 °F
Forecast: 62 / 71 °F
Wind: 9 mph from East

Location: Porto Alegre Aero-Porto


UV Index: 3 (Moderate)

Visibility: N/A


Pressure: 30.09 "Hg

Humidity: 69%

Dew point: 63 °F

Location of Santa MaríaLocation

Historic Weather in Santa María

°F

Santa María temperature yesterday

Maximum temperature yesterday: 73 °F (at 2:00 PM)
Minimum temperature yesterday: 68 °F (at 7:00 AM)
Average temperature yesterday: 71 °F

Past Weeks' High & Low Weather Summary

 TemperatureHumidityPressure
High90 °F (Apr 6, 3:00 PM)100% (Apr 8, 11:00 PM)30.24 "Hg (Apr 8, 11:00 PM)
Low37 °F (Apr 9, 12:00 AM)25% (Apr 9, 1:00 AM)29.56 "Hg (Apr 12, 5:00 AM)
Average72 °F78%29.96 "Hg
* Reported Apr 5 11:00 AM — Apr 20 11:00 AM, Santa María, Weather by CustomWeather, © 2014

Note: Actual official high and low records may vary slightly from our data, if they occured in-between our weather recording intervals... More about our weather records

Advertising

Historic Weather Conditions — Data for Previous 24 hours

 ConditionsComfort  
Time TempWeatherWind HumidityBarometerVisibility
11:00 AM
Apr 20
75 °FScattered clouds.10 mph65%30.12 "HgN/A
10:00 AM72 °FScattered clouds.9 mph73%30.12 "HgN/A
9:00 AM70 °FSunny.7 mph78%30.12 "Hg10 mi
8:00 AM70 °FSunny.7 mph83%30.09 "Hg10 mi
7:00 AM68 °FPartly sunny.3 mph88%30.09 "HgN/A
6:00 AM50 °FPartly sunny.6 mph100%30.07 "HgN/A
5:00 AM68 °FPassing clouds.8 mph94%30.07 "HgN/A
4:00 AM68 °FPassing clouds.9 mph94%30.07 "HgN/A
3:00 AM68 °FPassing clouds.7 mph88%30.07 "HgN/A
2:00 AM68 °FPassing clouds.5 mph88%30.09 "HgN/A
1:00 AM70 °FPassing clouds.7 mph88%30.09 "HgN/A
12:00 AM70 °FPassing clouds.9 mph88%30.09 "HgN/A
11:00 PM
Apr 19
70 °FPassing clouds.8 mph88%30.09 "HgN/A
10:00 PM70 °FPassing clouds.9 mph83%30.09 "HgN/A
9:00 PM70 °FPassing clouds.8 mph83%30.07 "HgN/A
8:00 PM70 °FPartly cloudy.7 mph83%30.07 "Hg5 mi
7:00 PM70 °FMostly cloudy.8 mph88%30.04 "Hg5 mi
6:00 PM72 °FScattered showers. Mostly cloudy.10 mph83%N/A6 mi
5:00 PM72 °FScattered showers. Mostly cloudy.9 mph83%N/AN/A
4:00 PM73 °FCloudy.12 mph74%30.01 "Hg6 mi
3:00 PM73 °FCloudy.8 mph78%30.01 "Hg6 mi
2:00 PM73 °FMostly cloudy.7 mph83%30.01 "Hg6 mi
1:00 PM72 °FMostly cloudy.8 mph88%30.04 "Hg6 mi
12:00 PM72 °FLight rain. Mostly cloudy.5 mph94%30.04 "Hg4 mi
Weather by CustomWeather, © 2014

See weather overview